Content
SEND FEEDBACK

Daily
Averages
Monthly
Summary
United States of America

MAURICEVILLE, TEXAS


Home > North America > United States > Texas
Elevation: 6 meters     Latitude: 30 14N     Longitude: 093 44W

WEATHER
 
SELECT A DAY
Number of Records: 107,977;   Date Range: 8/25/05 - 7/21/14
 
SHARE

PRINT THIS DATA

[ ← Previous Day ]
WEATHER ALMANAC - 9 FEBRUARY, 2013
[ Next Day → ]
[ °F ]   °C
Weather ElementAverageHighLow
Temperature14.1 °C18 °C (1:35 pm)8 °C (3:55 am)
Dewpoint13.3 °C18 °C (11:35 pm)8 °C (1:55 am)
Humidity94.9 %100 % (12:35 am)82 % (11:55 am)
Barometer1018.6 hPa1022 hPa (7:35 am)1014.2 hPa (11:55 pm)
Wind Speed14.2 km/h24.1 km/h (6:35 pm)
Wind Gust37 km/h (5:55 pm)
Weather ElementAverage
Visibility15 km
Wind DirectionENE (78.6 °)

Weather ElementTotal
Precipitation---
Heating Degree Days5.3 (Base 18.3)
Growing Degree Days3 (Base 10)
Averaged from 71 records on 9 February, 2013
WEATHER CONDITIONS BREAKOUT
WIND DIRECTION BREAKOUT
WEATHER BY HOUR - 9 FEBRUARY, 2013
[ °F ]   °C
Local TimeTemperatureDewpointHumidityBarometerVisibilityWind DirectionWind SpeedGust SpeedPrecipitationEventsConditions
12:35 AM10 °C10 °C100 %1021.7 hPa16.1 kmNE (40°)5.6 km/hClear
12:55 AM10 °C10 °C100 %1021.7 hPa16.1 kmCalmClear
1:15 AM10 °C10 °C100 %1021.3 hPa16.1 kmNNE (20°)5.6 km/hClear
1:35 AM10 °C9 °C94 %1021.3 hPa16.1 kmNNE (20°)5.6 km/hClear
1:55 AM9 °C8 °C93 %1021.3 hPa16.1 kmNNE (30°)5.6 km/hClear
2:15 AM9 °C9 °C100 %1021.3 hPa16.1 kmNNE (20°)7.4 km/hClear
2:35 AM9 °C9 °C100 %1021.3 hPa16.1 kmNNE (20°)7.4 km/hClear
2:55 AM9 °C9 °C100 %1021.3 hPa16.1 kmCalmScattered Clouds
3:15 AM10 °C9 °C94 %1021 hPa16.1 kmNE (40°)7.4 km/hMostly Cloudy
3:35 AM9 °C8 °C93 %1021 hPa16.1 kmNNE (30°)9.3 km/hScattered Clouds
3:55 AM8 °C8 °C100 %1020.7 hPa16.1 kmNE (40°)9.3 km/hScattered Clouds
4:15 AM8 °C8 °C100 %1020.7 hPa16.1 kmNNE (30°)7.4 km/hClear
4:35 AM8 °C8 °C100 %1020.3 hPa16.1 kmNNE (30°)9.3 km/hClear
4:55 AM8 °C8 °C100 %1020.7 hPa16.1 kmNNE (20°)7.4 km/hClear
5:15 AM8 °C8 °C100 %1020.7 hPa16.1 kmCalmMostly Cloudy
5:35 AM9 °C9 °C100 %1021 hPa16.1 kmNE (40°)9.3 km/hOvercast
5:55 AM10 °C9 °C94 %1020.7 hPa16.1 kmNE (40°)11.1 km/hOvercast
6:15 AM10 °C10 °C100 %1021.3 hPa16.1 kmNE (40°)7.4 km/hOvercast
6:35 AM10 °C10 °C100 %1021.3 hPa16.1 kmNE (40°)5.6 km/hOvercast
6:55 AM10 °C10 °C100 %1021.7 hPa16.1 kmNNE (30°)7.4 km/hOvercast
7:15 AM11 °C10 °C94 %1021.7 hPa16.1 kmNE (50°)5.6 km/hOvercast
7:35 AM11 °C10 °C94 %1022 hPa16.1 kmNE (40°)9.3 km/hOvercast
7:55 AM11 °C10 °C94 %1022 hPa16.1 kmENE (60°)9.3 km/hOvercast
8:15 AM11 °C11 °C100 %1022 hPa16.1 kmENE (60°)11.1 km/hOvercast
8:35 AM11 °C11 °C100 %1022 hPa16.1 kmENE (60°)11.1 km/hOvercast
8:55 AM12 °C11 °C94 %1021.7 hPa16.1 kmENE (60°)13 km/hOvercast
9:15 AM12 °C12 °C100 %1021.7 hPa16.1 kmENE (70°)14.8 km/hOvercast
9:35 AM13 °C12 °C94 %1021.7 hPa16.1 kmENE (70°)13 km/hOvercast
9:55 AM13 °C12 °C94 %1021.3 hPa16.1 kmEast (80°)16.7 km/hOvercast
10:15 AM14 °C13 °C94 %1021.3 hPa16.1 kmEast (90°)13 km/hOvercast
10:35 AM14 °C13 °C94 %1021.3 hPa16.1 kmEast (80°)13 km/hOvercast
10:55 AM15 °C13 °C88 %1021.3 hPa16.1 kmEast (80°)14.8 km/hOvercast
11:15 AM15 °C13 °C88 %1021 hPa16.1 kmEast (90°)13 km/hOvercast
11:35 AM15 °C13 °C88 %1020.7 hPa16.1 kmESE (110°)20.4 km/hOvercast
11:55 AM16 °C13 °C82 %1020.3 hPa16.1 kmEast (100°)20.4 km/hOvercast
12:15 PM16 °C14 °C88 %1020 hPa16.1 kmESE (110°)20.4 km/hOvercast
12:35 PM16 °C15 °C94 %1019.6 hPa16.1 kmEast (100°)16.7 km/hOvercast
12:55 PM17 °C15 °C88 %1019.3 hPa16.1 kmEast (100°)20.4 km/hOvercast
1:15 PM17 °C15 °C88 %1018.6 hPa16.1 kmEast (80°)14.8 km/hOvercast
1:35 PM18 °C15 °C83 %1018.3 hPa16.1 kmESE (110°)14.8 km/h27.8 km/hOvercast
1:55 PM18 °C16 °C88 %1017.9 hPa16.1 kmESE (110°)22.2 km/h31.5 km/hOvercast
2:15 PM18 °C16 °C88 %1017.6 hPa16.1 kmEast (100°)22.2 km/h27.8 km/hOvercast
2:35 PM18 °C16 °C88 %1017.3 hPa16.1 kmEast (100°)22.2 km/hOvercast
2:55 PM18 °C16 °C88 %1017.3 hPa16.1 kmEast (100°)16.7 km/hOvercast
3:15 PM18 °C16 °C88 %1016.9 hPa16.1 kmSE (130°)18.5 km/h27.8 km/hOvercast
3:35 PM18 °C16 °C88 %1016.9 hPa16.1 kmSE (130°)20.4 km/hOvercast
3:55 PM18 °C16 °C88 %1016.9 hPa16.1 kmESE (120°)20.4 km/h31.5 km/hOvercast
4:15 PM17 °C16 °C94 %1016.9 hPa16.1 kmESE (120°)18.5 km/hOvercast
4:35 PM17 °C16 °C94 %1016.6 hPa16.1 kmESE (110°)14.8 km/hOvercast
4:55 PM17 °C16 °C94 %1016.3 hPa16.1 kmESE (110°)18.5 km/h31.5 km/hOvercast
5:15 PM17 °C16 °C94 %1015.9 hPa11.3 kmEast (100°)18.5 km/hOvercast
5:35 PM17 °C16 °C94 %1015.6 hPa11.3 kmEast (100°)18.5 km/h29.6 km/hOvercast
5:55 PM17 °C16 °C94 %1015.6 hPa11.3 kmESE (110°)22.2 km/h37 km/hOvercast
6:15 PM17 °C16 °C94 %1015.6 hPa16.1 kmESE (110°)20.4 km/hOvercast
6:35 PM17 °C16 °C94 %1015.2 hPa16.1 kmEast (100°)24.1 km/h33.3 km/hOvercast
6:55 PM17 °C16 °C94 %1015.2 hPa16.1 kmESE (110°)20.4 km/h35.2 km/hOvercast
7:15 PM17 °C16 °C94 %1015.2 hPa16.1 kmEast (100°)24.1 km/h35.2 km/hOvercast
7:35 PM17 °C17 °C100 %1015.2 hPa16.1 kmESE (110°)22.2 km/h31.5 km/hOvercast
7:55 PM17 °C17 °C100 %1015.6 hPa11.3 kmESE (110°)16.7 km/h25.9 km/hOvercast
8:15 PM17 °C17 °C100 %1015.6 hPa11.3 kmESE (110°)16.7 km/h25.9 km/hOvercast
8:35 PM17 °C17 °C100 %1015.6 hPa11.3 kmESE (110°)13 km/hOvercast
8:55 PM17 °C17 °C100 %1015.6 hPa11.3 kmESE (110°)14.8 km/h25.9 km/hOvercast
9:15 PM17 °C17 °C100 %1015.2 hPa11.3 kmESE (110°)20.4 km/h25.9 km/hOvercast
9:35 PM17 °C17 °C100 %1015.2 hPa11.3 kmEast (100°)20.4 km/h27.8 km/hOvercast
9:55 PM17 °C17 °C100 %1015.2 hPa11.3 kmESE (110°)20.4 km/hOvercast
10:15 PM18 °C17 °C94 %1014.9 hPa11.3 kmESE (120°)14.8 km/hOvercast
10:35 PM18 °C17 °C94 %1014.9 hPa11.3 kmESE (120°)13 km/hOvercast
10:55 PM18 °C17 °C94 %1014.6 hPa11.3 kmESE (120°)20.4 km/hOvercast
11:15 PM18 °C17 °C94 %1014.6 hPa11.3 kmESE (110°)18.5 km/h25.9 km/hOvercast
11:35 PM18 °C18 °C100 %1014.6 hPa11.3 kmSE (130°)18.5 km/h27.8 km/hOvercast
11:55 PM18 °C18 °C100 %1014.2 hPa11.3 kmESE (120°)13 km/hOvercast
Hourly data recorded from KORG, located 0 kilometers away from Mauriceville, Texas







STORIES FROM OUR PARTNERS